This is the latest recevied weather packets stored in our database for station/object K7TUS-6. If no packets are shown the sender has not sent any weather packets the latest 10 day(s).
| Time | Temp. | Humidity | Pressure | Rain* | Wind** | Luminosity | Snow |
|---|---|---|---|---|---|---|---|
| 1777571105 | 15° C | 1% | 980.8 hPa | - | - | - | - |
| 1777570804 | 15.56° C | 1% | 980.1 hPa | - | - | - | - |
| 1777570204 | 15° C | 1% | 980.8 hPa | - | - | - | - |
| 1777569903 | 13.89° C | 1% | 981.1 hPa | - | - | - | - |
| 1777569609 | 14.44° C | 1% | 981.3 hPa | - | - | - | - |
| 1777569308 | 13.89° C | 1% | 981.3 hPa | - | - | - | - |
| 1777569008 | 13.33° C | 1% | 981.9 hPa | - | - | - | - |
| 1777568707 | 12.22° C | 1% | 981.5 hPa | - | - | - | - |
| 1777568406 | 14.44° C | 1% | 981.3 hPa | - | - | - | - |
| 1777568106 | 13.89° C | 1% | 981.4 hPa | - | - | - | - |
| 1777567805 | 13.33° C | 1% | 981.5 hPa | - | - | - | - |
| 1777567503 | 14.44° C | 1% | 981 hPa | - | - | - | - |
| 1777567203 | 14.44° C | 1% | 981.5 hPa | - | - | - | - |
| 1777566908 | 15° C | 1% | 981.7 hPa | - | - | - | - |
| 1777566307 | 14.44° C | 1% | 980.5 hPa | - | - | - | - |
| 1777566007 | 13.89° C | 1% | 981.3 hPa | - | - | - | - |
| 1777565706 | 13.33° C | 1% | 980.9 hPa | - | - | - | - |
| 1777565405 | 13.33° C | 1% | 981.2 hPa | - | - | - | - |
| 1777565111 | 12.78° C | 1% | 980.7 hPa | - | - | - | - |
| 1777564805 | 12.78° C | 1% | 981.1 hPa | - | - | - | - |
| 1777564504 | 12.78° C | 1% | 981.2 hPa | - | - | - | - |
| 1777564204 | 12.22° C | 1% | 981 hPa | - | - | - | - |
| 1777563907 | 12.22° C | 1% | 980 hPa | - | - | - | - |
| 1777563606 | 12.78° C | 1% | 981.2 hPa | - | - | - | - |
| 1777563306 | 11.67° C | 1% | 980.5 hPa | - | - | - | - |
* Rain since midnight (hover to see other rain measurements)
** Current wind speed in m/s (hover to see current wind gust speed)